TAX99PA LPPT-LEMH

Flight info

Callsign TAX99PA
Flight time 1h 41m
Altitude 36000
Route ORVED DCT UREDI DCT DIPOL M871 NANDO T257 MABUX M871 PTC
Aircraft A319/M-SDE3FGHIRWY/LB1

Departure

Time 2026-04-24 14:41
Airport Lisbon Humberto Delgado Airport (LPPT)

Arrival

Time 2026-04-24 16:22
Airport Menorca Airport (LEMH)
Time Latitude Longitude Altitude Speed Heading
2026-04-24 14:13 38.76892 -9.13051 334 ft 0 kts 78°
2026-04-24 14:28 38.76889 -9.13068 333 ft 4 kts 78°
2026-04-24 14:28 38.76883 -9.13101 334 ft 4 kts 71°
2026-04-24 14:29 38.76871 -9.13128 333 ft 4 kts 25°
2026-04-24 14:29 38.76854 -9.13132 336 ft 0 kts 348°
2026-04-24 14:32 38.76860 -9.13133 336 ft 1 kts 348°
2026-04-24 14:32 38.76867 -9.13135 334 ft 1 kts 348°
2026-04-24 14:33 38.76880 -9.13139 336 ft 3 kts 348°
2026-04-24 14:33 38.76906 -9.13146 337 ft 5 kts 348°
2026-04-24 14:33 38.76948 -9.13158 336 ft 8 kts 347°
2026-04-24 14:33 38.77009 -9.13175 338 ft 10 kts 349°
2026-04-24 14:34 38.77085 -9.13194 336 ft 12 kts 348°
2026-04-24 14:34 38.77177 -9.13219 338 ft 15 kts 348°
2026-04-24 14:34 38.77284 -9.13249 338 ft 17 kts 349°
2026-04-24 14:34 38.77404 -9.13272 338 ft 18 kts 348°
2026-04-24 14:35 38.77527 -9.13306 335 ft 18 kts 348°
2026-04-24 14:35 38.77652 -9.13321 335 ft 18 kts 359°
2026-04-24 14:35 38.77764 -9.13347 348 ft 14 kts 348°
2026-04-24 14:35 38.77842 -9.13368 348 ft 10 kts 348°
2026-04-24 14:36 38.77902 -9.13385 350 ft 8 kts 348°
2026-04-24 14:36 38.77960 -9.13400 357 ft 8 kts 348°
2026-04-24 14:36 38.78024 -9.13415 357 ft 10 kts 357°
2026-04-24 14:36 38.78082 -9.13389 358 ft 9 kts 19°
2026-04-24 14:37 38.78137 -9.13361 358 ft 9 kts 23°
2026-04-24 14:37 38.78194 -9.13331 358 ft 9 kts 22°
2026-04-24 14:37 38.78249 -9.13302 362 ft 9 kts 22°
2026-04-24 14:37 38.78305 -9.13273 362 ft 8 kts 22°
2026-04-24 14:38 38.78359 -9.13245 359 ft 9 kts 22°
2026-04-24 14:38 38.78415 -9.13221 361 ft 8 kts
2026-04-24 14:38 38.78466 -9.13226 361 ft 7 kts 347°
2026-04-24 14:38 38.78510 -9.13244 364 ft 7 kts 331°
2026-04-24 14:39 38.78518 -9.13252 361 ft 0 kts 322°
2026-04-24 14:39 38.78528 -9.13265 361 ft 6 kts 313°
2026-04-24 14:39 38.78557 -9.13355 360 ft 11 kts 270°
2026-04-24 14:40 38.78526 -9.13383 361 ft 0 kts 205°
2026-04-24 14:40 38.78506 -9.13395 362 ft 17 kts 204°
2026-04-24 14:40 38.78155 -9.13581 372 ft 89 kts 202°
2026-04-24 14:40 38.77391 -9.13992 412 ft 139 kts 204°
2026-04-24 14:41 38.76516 -9.14453 984 ft 136 kts 204°
2026-04-24 14:41 38.75622 -9.14918 1462 ft 141 kts 208°
2026-04-24 14:41 38.74687 -9.15413 1830 ft 152 kts 207°
2026-04-24 14:41 38.73678 -9.15947 2179 ft 163 kts 207°
2026-04-24 14:42 38.72970 -9.16330 2504 ft 165 kts 205°
2026-04-24 14:42 38.71418 -9.17169 2728 ft 209 kts 204°
2026-04-24 14:42 38.70000 -9.17934 3037 ft 235 kts 204°
2026-04-24 14:42 38.68406 -9.18792 3462 ft 260 kts 203°
2026-04-24 14:43 38.66636 -9.19522 4125 ft 277 kts 186°
2026-04-24 14:43 38.64727 -9.19200 5064 ft 280 kts 157°
2026-04-24 14:43 38.63130 -9.17794 5951 ft 282 kts 129°
2026-04-24 14:43 38.62170 -9.15618 6891 ft 282 kts 109°
2026-04-24 14:44 38.61497 -9.13289 7746 ft 284 kts 100°
2026-04-24 14:44 38.61495 -9.10760 8637 ft 284 kts 75°
2026-04-24 14:44 38.62315 -9.08484 9509 ft 284 kts 51°
2026-04-24 14:44 38.63791 -9.06849 10311 ft 288 kts 27°
2026-04-24 14:45 38.65707 -9.05906 10742 ft 307 kts 17°
2026-04-24 14:45 38.67813 -9.05040 10988 ft 331 kts 17°
2026-04-24 14:45 38.70067 -9.04137 11368 ft 347 kts 17°
2026-04-24 14:45 38.72406 -9.03203 12089 ft 352 kts 17°
2026-04-24 14:46 38.74745 -9.02260 12844 ft 355 kts 17°
2026-04-24 14:46 38.77117 -9.01293 13585 ft 359 kts 18°
2026-04-24 14:46 38.79505 -9.00312 14277 ft 363 kts 18°
2026-04-24 14:46 38.81926 -8.99310 14903 ft 367 kts 18°
2026-04-24 14:47 38.83567 -8.98630 15361 ft 369 kts 18°
2026-04-24 14:47 38.86709 -8.96928 16170 ft 375 kts 30°
2026-04-24 14:47 38.88765 -8.94856 16817 ft 378 kts 46°
2026-04-24 14:47 38.90269 -8.92076 17442 ft 383 kts 61°
2026-04-24 14:48 38.91504 -8.89028 18102 ft 386 kts 62°
2026-04-24 14:48 38.92727 -8.85939 18688 ft 390 kts 63°
2026-04-24 14:48 38.93947 -8.82819 19221 ft 394 kts 63°
2026-04-24 14:48 38.95182 -8.79654 19764 ft 398 kts 63°
2026-04-24 14:49 38.96432 -8.76455 20288 ft 402 kts 63°
2026-04-24 14:49 38.97691 -8.73241 20806 ft 405 kts 63°
2026-04-24 14:49 38.98968 -8.69983 21325 ft 408 kts 63°
2026-04-24 14:49 39.00251 -8.66706 21854 ft 411 kts 63°
2026-04-24 14:50 39.01543 -8.63410 22335 ft 415 kts 63°
2026-04-24 14:50 39.02832 -8.60125 22812 ft 418 kts 63°
2026-04-24 14:50 39.04162 -8.56725 23267 ft 422 kts 64°
2026-04-24 14:50 39.05468 -8.53375 23674 ft 427 kts 64°
2026-04-24 14:51 39.06800 -8.49957 24052 ft 430 kts 64°
2026-04-24 14:51 39.08149 -8.46491 24423 ft 434 kts 64°
2026-04-24 14:51 39.09503 -8.43006 24805 ft 436 kts 65°
2026-04-24 14:51 39.10860 -8.39508 25189 ft 439 kts 65°
2026-04-24 14:52 39.12228 -8.35978 25578 ft 441 kts 65°
2026-04-24 14:52 39.13601 -8.32429 25963 ft 443 kts 66°
2026-04-24 14:52 39.14978 -8.28874 26385 ft 445 kts 66°
2026-04-24 14:52 39.16362 -8.25294 26766 ft 447 kts 66°
2026-04-24 14:53 39.17751 -8.21691 27136 ft 450 kts 66°
2026-04-24 14:53 39.19140 -8.18078 27486 ft 452 kts 67°
2026-04-24 14:53 39.20549 -8.14414 27837 ft 455 kts 67°
2026-04-24 14:53 39.21957 -8.10756 28179 ft 457 kts 67°
2026-04-24 14:54 39.23371 -8.07077 28506 ft 460 kts 68°
2026-04-24 14:54 39.24797 -8.03361 28851 ft 462 kts 68°
2026-04-24 14:54 39.26217 -7.99646 29166 ft 464 kts 68°
2026-04-24 14:54 39.27653 -7.95882 29486 ft 467 kts 68°
2026-04-24 14:55 39.28598 -7.93404 29682 ft 468 kts 68°
2026-04-24 14:55 39.30043 -7.89617 30066 ft 469 kts 68°
2026-04-24 14:55 39.31479 -7.85861 30458 ft 468 kts 68°
2026-04-24 14:55 39.32929 -7.82066 30769 ft 469 kts 68°
2026-04-24 14:56 39.34367 -7.78291 31123 ft 469 kts 68°
2026-04-24 14:56 39.35807 -7.74502 31487 ft 469 kts 68°
2026-04-24 14:56 39.37245 -7.70710 31854 ft 469 kts 67°
2026-04-24 14:56 39.38677 -7.66929 32233 ft 469 kts 67°
2026-04-24 14:57 39.40110 -7.63146 32610 ft 468 kts 66°
2026-04-24 14:57 39.41538 -7.59376 32975 ft 468 kts 67°
2026-04-24 14:57 39.42966 -7.55592 33355 ft 467 kts 67°
2026-04-24 14:57 39.44392 -7.51805 33727 ft 467 kts 67°
2026-04-24 14:58 39.45812 -7.48031 34090 ft 467 kts 66°
2026-04-24 14:58 39.47232 -7.44257 34406 ft 467 kts 66°
2026-04-24 14:58 39.48640 -7.40515 34747 ft 466 kts 66°
2026-04-24 14:58 39.50072 -7.36698 35101 ft 465 kts 66°
2026-04-24 14:59 39.51461 -7.32982 35433 ft 464 kts 66°
2026-04-24 14:59 39.52863 -7.29229 35765 ft 463 kts 66°
2026-04-24 14:59 39.54263 -7.25484 36000 ft 462 kts 65°
2026-04-24 15:00 39.57061 -7.17990 36058 ft 462 kts 66°
2026-04-24 15:00 39.59858 -7.10480 36061 ft 463 kts 66°
2026-04-24 15:01 39.62655 -7.02922 36061 ft 463 kts 66°
2026-04-24 15:01 39.65421 -6.95446 36059 ft 463 kts 66°
2026-04-24 15:02 39.68208 -6.87914 36054 ft 463 kts 66°
2026-04-24 15:02 39.70985 -6.80368 36055 ft 463 kts 67°
2026-04-24 15:03 39.73762 -6.72804 36061 ft 466 kts 67°
2026-04-24 15:03 39.76581 -6.65116 36061 ft 474 kts 67°
2026-04-24 15:04 39.79416 -6.57369 36063 ft 475 kts 67°
2026-04-24 15:04 39.82242 -6.49618 36065 ft 475 kts 67°
2026-04-24 15:05 39.85064 -6.41851 36061 ft 474 kts 68°
2026-04-24 15:05 39.87820 -6.34061 36066 ft 473 kts 69°
2026-04-24 15:06 39.90398 -6.26263 36068 ft 472 kts 70°
2026-04-24 15:06 39.92964 -6.18365 36068 ft 472 kts 70°
2026-04-24 15:07 39.95548 -6.10505 36069 ft 472 kts 70°
2026-04-24 15:07 39.98154 -6.02638 36072 ft 472 kts 70°
2026-04-24 15:08 40.00751 -5.94790 36090 ft 470 kts 70°
2026-04-24 15:08 40.03330 -5.86958 36095 ft 470 kts 70°
2026-04-24 15:09 40.05900 -5.79124 36094 ft 469 kts 70°
2026-04-24 15:09 40.08458 -5.71283 36087 ft 469 kts 70°
2026-04-24 15:10 40.10994 -5.63498 36099 ft 468 kts 70°
2026-04-24 15:10 40.13535 -5.55685 36095 ft 467 kts 71°
2026-04-24 15:11 40.16065 -5.47866 36095 ft 467 kts 71°
2026-04-24 15:11 40.18591 -5.40045 36098 ft 467 kts 71°
2026-04-24 15:12 40.21109 -5.32223 36087 ft 467 kts 71°
2026-04-24 15:12 40.24885 -5.20467 36100 ft 467 kts 71°
2026-04-24 15:13 40.27388 -5.12630 36111 ft 467 kts 71°
2026-04-24 15:13 40.29893 -5.04779 36114 ft 467 kts 71°
2026-04-24 15:14 40.32394 -4.96931 36108 ft 467 kts 71°
2026-04-24 15:14 40.34887 -4.89080 36104 ft 466 kts 71°
2026-04-24 15:15 40.37357 -4.81275 36106 ft 466 kts 71°
2026-04-24 15:15 40.39822 -4.73394 36101 ft 465 kts 73°
2026-04-24 15:16 40.41046 -4.65170 36099 ft 457 kts 92°
2026-04-24 15:16 40.40436 -4.56958 36083 ft 452 kts 102°
2026-04-24 15:17 40.39534 -4.48782 36091 ft 452 kts 101°
2026-04-24 15:17 40.38648 -4.40627 36104 ft 452 kts 101°
2026-04-24 15:18 40.37742 -4.32487 36106 ft 451 kts 101°
2026-04-24 15:18 40.36806 -4.24365 36102 ft 450 kts 102°
2026-04-24 15:19 40.35823 -4.16304 36099 ft 450 kts 102°
2026-04-24 15:19 40.34788 -4.08227 36092 ft 449 kts 102°
2026-04-24 15:20 40.33758 -4.00164 36089 ft 449 kts 102°
2026-04-24 15:20 40.32730 -3.92097 36086 ft 449 kts 102°
2026-04-24 15:21 40.31701 -3.84040 36084 ft 449 kts 102°
2026-04-24 15:21 40.30672 -3.75964 36064 ft 450 kts 102°
2026-04-24 15:22 40.29634 -3.67878 36071 ft 451 kts 102°
2026-04-24 15:23 40.28053 -3.55777 36080 ft 451 kts 102°
2026-04-24 15:23 40.26459 -3.43608 36087 ft 451 kts 103°
2026-04-24 15:25 40.23140 -3.25013 36079 ft 450 kts 109°
2026-04-24 15:26 40.18510 -3.04068 36074 ft 450 kts 109°
2026-04-24 15:27 40.13244 -2.80520 36097 ft 449 kts 109°
2026-04-24 15:29 40.07959 -2.57062 36077 ft 449 kts 109°
2026-04-24 15:31 40.01716 -2.29756 36087 ft 449 kts 109°
2026-04-24 15:32 39.97608 -2.14429 36083 ft 445 kts 121°
2026-04-24 15:33 39.91628 -2.00308 36100 ft 445 kts 121°
2026-04-24 15:34 39.84144 -1.82711 36095 ft 445 kts 121°
2026-04-24 15:35 39.76608 -1.65108 36129 ft 446 kts 122°
2026-04-24 15:36 39.73593 -1.58075 36120 ft 445 kts 122°
2026-04-24 15:36 39.69066 -1.47560 36105 ft 445 kts 121°
2026-04-24 15:37 39.66033 -1.40545 36098 ft 445 kts 122°
2026-04-24 15:37 39.62997 -1.33532 36104 ft 445 kts 122°
2026-04-24 15:38 39.59960 -1.26537 36096 ft 445 kts 122°
2026-04-24 15:38 39.56935 -1.19590 36095 ft 445 kts 122°
2026-04-24 15:39 39.53890 -1.12610 36084 ft 445 kts 122°
2026-04-24 15:39 39.50834 -1.05624 36094 ft 446 kts 122°
2026-04-24 15:40 39.47762 -0.98638 36110 ft 446 kts 122°
2026-04-24 15:40 39.44688 -0.91648 36126 ft 447 kts 122°
2026-04-24 15:41 39.41626 -0.84660 36129 ft 447 kts 122°
2026-04-24 15:41 39.38556 -0.77673 36131 ft 447 kts 122°
2026-04-24 15:42 39.35487 -0.70735 36101 ft 447 kts 122°
2026-04-24 15:42 39.32393 -0.63760 36111 ft 448 kts 122°
2026-04-24 15:43 39.29584 -0.56574 36098 ft 452 kts 111°
2026-04-24 15:43 39.28595 -0.48530 36096 ft 459 kts 91°
2026-04-24 15:44 39.29024 -0.40282 36103 ft 460 kts 89°
2026-04-24 15:44 39.29458 -0.32046 36106 ft 461 kts 89°
2026-04-24 15:45 39.29881 -0.23777 36108 ft 461 kts 89°
2026-04-24 15:45 39.30231 -0.16913 36104 ft 461 kts 89°
2026-04-24 15:46 39.30659 -0.08649 36107 ft 461 kts 89°
2026-04-24 15:46 39.31147 0.00961 36104 ft 462 kts 89°
2026-04-24 15:47 39.31486 0.07907 36100 ft 463 kts 89°
2026-04-24 15:47 39.31887 0.16197 36099 ft 464 kts 89°
2026-04-24 15:48 39.32288 0.24506 36110 ft 464 kts 89°
2026-04-24 15:48 39.32686 0.32834 36109 ft 465 kts 89°
2026-04-24 15:49 39.33073 0.41175 36104 ft 465 kts 89°
2026-04-24 15:49 39.33447 0.49475 36107 ft 465 kts 89°
2026-04-24 15:50 39.33832 0.57817 36109 ft 465 kts 89°
2026-04-24 15:50 39.34206 0.66150 36112 ft 465 kts 89°
2026-04-24 15:51 39.34570 0.74510 36117 ft 466 kts 89°
2026-04-24 15:51 39.34928 0.82862 36110 ft 465 kts 89°
2026-04-24 15:52 39.35280 0.91206 36133 ft 465 kts 89°
2026-04-24 15:52 39.35627 0.99546 36137 ft 464 kts 89°
2026-04-24 15:53 39.35966 1.07870 36120 ft 464 kts 89°
2026-04-24 15:53 39.36291 1.16186 36122 ft 464 kts 89°
2026-04-24 15:54 39.36622 1.24462 36097 ft 464 kts 89°
2026-04-24 15:54 39.36952 1.32844 36100 ft 465 kts 89°
2026-04-24 15:55 39.37264 1.41146 36103 ft 465 kts 89°
2026-04-24 15:55 39.37575 1.49489 36113 ft 465 kts 89°
2026-04-24 15:56 39.37882 1.57847 36098 ft 466 kts 89°
2026-04-24 15:56 39.38187 1.66214 36094 ft 467 kts 89°
2026-04-24 15:57 39.38487 1.74635 36102 ft 467 kts 89°
2026-04-24 15:57 39.38770 1.82988 36114 ft 467 kts 89°
2026-04-24 15:58 39.39044 1.91387 36102 ft 468 kts 89°
2026-04-24 15:58 39.39322 1.99789 36098 ft 469 kts 88°
2026-04-24 15:59 39.39604 2.08228 36099 ft 470 kts 88°
2026-04-24 15:59 39.39871 2.16676 36101 ft 470 kts 89°
2026-04-24 16:00 39.40122 2.25131 36107 ft 471 kts 89°
2026-04-24 16:00 39.40368 2.33528 36100 ft 471 kts 88°
2026-04-24 16:01 39.40616 2.42009 36100 ft 472 kts 88°
2026-04-24 16:01 39.40862 2.50505 36103 ft 473 kts 88°
2026-04-24 16:02 39.41099 2.58988 36105 ft 473 kts 88°
2026-04-24 16:02 39.41333 2.67494 36115 ft 473 kts 88°
2026-04-24 16:03 39.41557 2.76000 36097 ft 473 kts 88°
2026-04-24 16:03 39.41771 2.84417 35886 ft 464 kts 88°
2026-04-24 16:04 39.41872 2.88593 34957 ft 469 kts 88°
2026-04-24 16:04 39.41974 2.92828 34072 ft 473 kts 88°
2026-04-24 16:04 39.42077 2.97106 32951 ft 479 kts 88°
2026-04-24 16:04 39.42182 3.01443 31867 ft 483 kts 88°
2026-04-24 16:05 39.42394 3.10199 29799 ft 489 kts 88°
2026-04-24 16:05 39.42491 3.14567 28589 ft 485 kts 88°
2026-04-24 16:06 39.42995 3.23196 26099 ft 468 kts 77°
2026-04-24 16:06 39.43871 3.27211 25360 ft 459 kts 68°
2026-04-24 16:06 39.46759 3.34395 23872 ft 450 kts 57°
2026-04-24 16:07 39.48362 3.37873 23085 ft 446 kts 58°
2026-04-24 16:07 39.49934 3.41293 22406 ft 440 kts 58°
2026-04-24 16:07 39.53021 3.48028 21091 ft 429 kts 58°
2026-04-24 16:08 39.54538 3.51345 20466 ft 425 kts 58°
2026-04-24 16:08 39.57513 3.57868 19290 ft 417 kts 58°
2026-04-24 16:09 39.60434 3.64272 18172 ft 410 kts 57°
2026-04-24 16:09 39.61876 3.67441 17636 ft 405 kts 58°
2026-04-24 16:09 39.63300 3.70577 17104 ft 401 kts 58°
2026-04-24 16:09 39.64703 3.73671 16589 ft 397 kts 58°
2026-04-24 16:10 39.68846 3.82796 15009 ft 385 kts 57°
2026-04-24 16:11 39.71536 3.88741 13891 ft 379 kts 57°
2026-04-24 16:11 39.72954 3.91560 13272 ft 373 kts 47°
2026-04-24 16:11 39.74923 3.93671 12644 ft 365 kts 28°
2026-04-24 16:12 39.79807 3.94721 11193 ft 358 kts 349°
2026-04-24 16:12 39.82229 3.94020 10903 ft 344 kts 348°
2026-04-24 16:12 39.86752 3.93492 10657 ft 314 kts 359°
2026-04-24 16:13 39.88894 3.93674 10536 ft 302 kts
2026-04-24 16:13 39.92837 3.94718 9994 ft 282 kts 14°
2026-04-24 16:14 39.96485 3.96652 9740 ft 284 kts 25°
2026-04-24 16:14 39.98187 3.97941 9301 ft 288 kts 30°
2026-04-24 16:14 40.01319 4.01168 8429 ft 286 kts 42°
2026-04-24 16:15 40.02257 4.02410 8044 ft 283 kts 46°
2026-04-24 16:15 40.04964 4.07130 6679 ft 276 kts 58°
2026-04-24 16:16 40.06617 4.11553 5438 ft 269 kts 69°
2026-04-24 16:16 40.07208 4.13860 4818 ft 266 kts 73°
2026-04-24 16:17 40.08013 4.20413 4142 ft 220 kts 89°
2026-04-24 16:17 40.06901 4.23912 3992 ft 213 kts 133°
2026-04-24 16:18 40.04251 4.25474 3651 ft 216 kts 176°
2026-04-24 16:18 40.01279 4.24962 3112 ft 215 kts 188°
2026-04-24 16:18 39.99802 4.24656 2828 ft 215 kts 187°
2026-04-24 16:19 39.96867 4.24049 2243 ft 207 kts 187°
2026-04-24 16:19 39.95494 4.23765 2013 ft 196 kts 187°
2026-04-24 16:20 39.92972 4.23245 1484 ft 163 kts 186°
2026-04-24 16:20 39.91002 4.22839 1090 ft 134 kts 185°
2026-04-24 16:20 39.90102 4.22658 928 ft 129 kts 183°
2026-04-24 16:21 39.88330 4.22286 546 ft 130 kts 183°
2026-04-24 16:21 39.87440 4.22104 393 ft 129 kts 184°
2026-04-24 16:21 39.86587 4.21934 304 ft 111 kts 188°
2026-04-24 16:22 39.86087 4.21826 304 ft 30 kts 189°
2026-04-24 16:22 39.85685 4.21755 295 ft 31 kts 179°
2026-04-24 16:22 39.85484 4.21808 285 ft 26 kts 160°
2026-04-24 16:23 39.85399 4.21896 282 ft 14 kts 90°
2026-04-24 16:23 39.85469 4.21941 284 ft 11 kts
2026-04-24 16:23 39.85543 4.21958 286 ft 10 kts 11°
2026-04-24 16:24 39.85667 4.21982 293 ft 9 kts
2026-04-24 16:24 39.85743 4.21996 292 ft 13 kts
2026-04-24 16:24 39.85848 4.22018 297 ft 17 kts
2026-04-24 16:24 39.85986 4.22047 296 ft 23 kts
2026-04-24 16:25 39.86148 4.22080 294 ft 14 kts
2026-04-24 16:25 39.86189 4.22165 291 ft 15 kts 98°
2026-04-24 16:25 39.86227 4.22267 288 ft 15 kts
2026-04-24 16:26 39.86436 4.22312 288 ft 16 kts
2026-04-24 16:26 39.86481 4.22358 287 ft 9 kts 128°
2026-04-24 16:26 39.86468 4.22399 286 ft 0 kts 96°